User: anonymous   Login
Location: Wien
(48.2082°N, 16.3738°E)
Time: 07:04:55
(UTC+01:00)
Language:

Envisat - Orbit

View from above orbital plane
View from above orbital plane
View from above satellite
View from above satellite

Ground track
Ground track

The orbit data is extracted from the following two-line orbital elements,

1 27386U 02009A   19317.68286773 -.00000001  00000-0  13149-4 0  9999
2 27386  98.1430 331.0922 0001293  95.4744  15.8259 14.37962611927469
Epoch (UTC): 13 November 2019 16:23:19
Eccentricity: 0.0001293
inclination: 98.1430°
perigee height: 764 km
apogee height: 766 km
right ascension of ascending node: 331.0922°
argument of perigee: 95.4744°
revolutions per day: 14.37962611
mean anomaly at epoch: 15.8259°
orbit number at epoch: 92746

The dashed part of the orbit path shows where the satellite is in the earth's shadow,  

DLR